Location: Newark
(9.2300°N, 12.4600°E)
Time: 22:10:29
(UTC+00:00)

ISS - Visible Passes

Search period start: 14 December 2019 00:00
Search period end: 24 December 2019 00:00
Orbit: 411 x 421 km, 51.6° (Epoch: 15 December)

Date Brightness Start Highest point End Pass type
(mag) Time Alt. Az. Time Alt. Az. Time Alt. Az.
14 Dec -3.7 17:33:04 10° NW 17:36:25 80° SW 17:39:47 10° SSE visible
16 Dec -0.4 17:33:56 10° W 17:36:02 16° SW 17:38:08 10° SSW visible
18 Dec -0.7 04:25:02 10° S 04:27:30 19° SE 04:29:58 10° ENE visible
20 Dec -3.9 04:23:44 10° SW 04:27:03 76° NW 04:30:20 10° NNE visible
21 Dec -2.5 03:38:37 40° ESE 03:38:37 40° ESE 03:41:42 10° NE visible
22 Dec -1.5 04:28:21 11° NNW 04:28:21 11° NNW 04:28:40 10° NNW visible
